Location: Jackson Park
(37.2862°N, 79.9123°W)
Time: 01:31:43
(UTC+00:00)

Tiros 1 despin weight - Pass Details

Date: 18 May 2026
Orbit: 554 x 591 km, 48.2° (Epoch: 6 June)

Event Time Altitude Azimuth Distance (km) Brightness Sun altitude
Rises 07:09:02 0° 187° (S) 2,770 - -27.2°
Reaches altitude 10° 07:12:20 10° 160° (SSE) 1,868 - -26.9°
Maximum altitude 07:14:26 13° 131° (SE) 1,653 - -26.7°
Exits shadow 07:15:44 12° 111° (ESE) 1,737 ? -26.5°
Drops below altitude 10° 07:16:31 10° 101° (E) 1,862 ? -26.5°
Sets 07:19:47 0° 75° (ENE) 2,754 ? -26.1°
